#timestamp,LO_Frequency,Hit,StdDev 
1695110415.4,286046997.0,P
1695110435.2,286046999.6,N
1695110455.0,286046999.1,N
1695110455.9,286046999.1,N
1695110475.8,286046999.0,N
1695110495.6,286046998.7,N
1695110515.5,286046998.6,N
1695110535.3,286046998.1,N
1695110555.1,286046996.8,Y
1695110575.9,286046998.3,P
1695110595.7,286046998.5,P
1695110615.6,286046998.1,P
1695110635.4,286046998.7,Y
1695110655.2,286047000.0,P
1695110675.1,286047000.0,N
1695110676.0,286047000.0,N
1695110695.8,286047000.3,N
1695110715.6,286046998.1,N
1695110735.5,286046998.9,N
1695110755.3,286046998.3,N
1695110775.2,286047000.4,N
1695110795.9,286047000.6,N
1695110815.7,286047000.6,N
1695110835.6,286047001.2,N
1695110855.4,286046998.7,N
1695110875.2,286047000.8,N
1695110895.1,286047000.2,N
1695110896.0,286047000.2,N
1695110915.8,286047000.4,N
1695110935.6,286047002.8,N
1695110955.5,286047001.0,N
1695110975.3,286047001.0,N
1695110995.2,286047000.9,N
1695111015.9,286046999.9,N
1695111035.7,286047001.2,N
1695111055.6,286047001.1,N
1695111075.4,286046999.9,N
1695111095.2,286047000.1,N
1695111115.1,286047000.2,N
1695111116.0,286047000.2,N
1695111135.8,286047000.7,N
1695111155.7,286047000.6,N
1695111175.5,286047000.5,N
1695111195.3,286047000.2,N
1695111215.2,286047000.0,N
1695111235.0,286047000.4,N
1695111235.9,286047000.4,N
1695111255.8,286047000.7,N
1695111275.6,286046998.4,N
1695111295.4,286046998.3,N
1695111315.3,286046998.8,N
1695111335.1,286046998.1,N
1695111355.9,286047001.2,N
1695111375.7,286046998.1,N
1695111395.5,286046998.9,N
1695111415.4,286046998.3,N
1695111435.2,286046998.8,N
1695111455.0,286046996.6,Y
1695111456.0,286046996.6,P
1695111475.8,286046997.1,N
1695111495.6,286046997.3,N
1695111515.5,286046997.7,N
1695111535.3,286046997.6,N
1695111555.2,286046996.1,Y
1695111575.9,286047000.7,P
1695111595.7,286047000.0,N
1695111615.6,286047002.7,N
1695111635.4,286047001.1,N
1695111655.2,286047000.3,N
1695111675.1,286047001.0,N
1695111676.0,286047001.0,N
1695111695.8,286047011.9,Y
1695111715.7,286046998.3,P
1695111735.5,286046998.9,N
1695111755.3,286046996.9,P
1695111775.2,286046998.2,N
1695111795.0,286047000.8,N
1695111795.9,286047000.8,N
1695111815.7,286046998.1,N
1695111835.6,286047000.3,N
1695111885.5,286046998.4,E
1695111895.4,286047000.8,N
1695111915.2,286047002.0,P
1695111935.0,286047002.1,P
1695111936.0,286047002.1,Y
1695111955.8,286047000.6,P
1695111975.6,286046999.4,N
1695111995.5,286046999.0,N
1695112015.3,286046999.5,N
1695112035.1,286046998.8,N
1695112055.9,286046998.1,N
1695112075.7,286047000.6,N
1695112095.6,286047002.5,N
1695112115.4,286047002.6,N
1695112135.2,286047002.3,N
1695112155.1,286046999.8,N
1695112156.0,286046999.8,N
1695112175.8,286047000.1,N
1695112195.6,286047000.3,N
1695112215.5,286047002.8,N
1695112235.3,286047000.4,N
1695112255.2,286047000.2,N
1695112275.9,286047002.4,N
1695112295.7,286046999.7,N
1695112315.6,286047001.0,N
1695112335.4,286046998.1,N
1695112355.2,286046998.1,N
1695112375.1,286046998.3,N
1695112376.0,286046998.3,N
1695112395.8,286046998.4,N
1695112415.7,286047001.1,N
1695112435.5,286047000.7,N
1695112455.3,286047000.5,N
1695112475.2,286047000.8,N
1695112495.0,286046998.9,N
1695112495.9,286046998.9,N
1695112515.8,286046998.2,N
1695112535.6,286046999.2,N
1695112555.4,286046996.6,N
1695112575.3,286046998.8,N
1695112595.1,286046998.5,N
1695112615.8,286046998.6,N
1695112635.7,286047000.5,N
1695112655.5,286047000.0,N
1695112675.4,286047000.0,N
1695112695.2,286046999.9,N
1695112715.0,286047002.5,N
1695112715.9,286047002.5,N
1695112735.8,286047001.7,N
1695112755.6,286047001.5,N
1695112775.4,286047001.5,N
1695112795.3,286047001.7,N
1695112815.1,286047003.8,N
1695112835.9,286047003.6,N
1695112855.7,286047004.1,N
1695112875.5,286047003.3,N
1695112895.4,286047005.6,N
1695112915.2,286047003.5,N
1695112935.0,286047005.9,N
1695112936.0,286047005.9,N
1695112955.8,286047003.2,N
1695112975.6,286047005.1,N
1695112995.5,286047005.8,N
1695113015.3,286047005.0,N
1695113035.1,286047004.8,N
1695113055.9,286047004.7,N
1695113075.7,286047004.5,N
1695113095.5,286047007.5,N
1695113115.4,286047007.0,N
1695113135.2,286047007.4,N
1695113155.1,286047006.9,N
1695113156.0,286047006.9,N
1695113175.8,286047007.0,Y
1695113195.6,286047004.4,P
1695113215.5,286047003.8,P
1695113235.3,286047003.4,P
1695113255.2,286047003.2,Y
1695113275.9,286047000.9,P
1695113295.7,286047000.0,N
1695113315.6,286047000.4,N
1695113335.4,286047000.6,N
1695113355.2,286046999.9,N
1695113375.1,286047000.9,N
1695113376.0,286047000.9,N
1695113395.8,286047002.7,N
1695113415.7,286047002.4,N
1695113435.5,286047000.0,N
1695113455.3,286047000.3,N
1695113475.2,286047000.5,N
1695113495.0,286047000.9,N
1695113495.9,286047000.9,N
1695113515.7,286046998.2,N
1695113535.6,286046998.4,N
1695113555.4,286047001.1,N
1695113575.3,286047000.6,N
1695113595.1,286047000.4,N
1695113596.0,286047000.4,N
1695113615.8,286046999.9,N
1695113635.7,286046999.8,N
1695113655.5,286047002.1,N
1695113675.3,286047002.2,N
1695113695.2,286047001.7,N
1695113715.0,286047002.2,N
1695113715.9,286047002.2,N
1695113735.8,286047002.5,N
1695113755.6,286047002.0,N
1695113775.4,286047001.4,N
1695113795.3,286047001.6,N
1695113815.1,286047002.8,N
1695113835.8,286046999.9,N
1695113855.7,286046999.7,N
1695113875.5,286047002.6,N
1695113895.4,286047001.9,N
1695113915.2,286047001.8,N
1695113935.0,286047002.6,N
1695113935.9,286047002.6,N
1695113955.8,286047002.4,N
1695113975.6,286046999.8,N
1695113995.4,286047002.4,N
